This is the latest recevied weather packets stored in our database for station/object KC5EZZ-2. If no packets are shown the sender has not sent any weather packets the latest 1 day(s).
| Time | Temp. | Humidity | Pressure | Rain* | Wind** | Luminosity | Snow |
|---|---|---|---|---|---|---|---|
| 1778050263 | 19.44° C | - | - | 0 mm | 2.68 m/s, 24° | - | - |
| 1778049661 | 19.44° C | - | - | 0 mm | 3.13 m/s, 24° | - | - |
| 1778049059 | 20° C | - | - | 0 mm | 3.58 m/s, 13° | - | - |
| 1778048760 | 20° C | - | - | 0 mm | 3.13 m/s, 34° | - | - |
| 1778048460 | 20° C | - | - | 0 mm | 2.68 m/s, 44° | - | - |
| 1778048158 | 20.56° C | - | - | 0 mm | 3.58 m/s, 20° | - | - |
| 1778047858 | 20.56° C | - | - | 0 mm | 3.13 m/s, 13° | - | - |
| 1778047559 | 20.56° C | - | - | 0 mm | 4.02 m/s, 21° | - | - |
| 1778046957 | 21.11° C | - | - | 0 mm | 5.36 m/s, 31° | - | - |
| 1778046355 | 21.67° C | - | - | 0 mm | 4.47 m/s, 24° | - | - |
| 1778045756 | 21.67° C | - | - | 0 mm | 4.47 m/s, 34° | - | - |
| 1778045454 | 22.22° C | - | - | 0 mm | 2.24 m/s, 58° | - | - |
| 1778045154 | 21.67° C | - | - | 0 mm | 1.79 m/s, 70° | - | - |
| 1778044855 | 21.11° C | - | - | 0 mm | 1.34 m/s, 21° | - | - |
| 1778044253 | 20.56° C | - | - | 0 mm | 0 m/s | - | - |
| 1778043352 | 20.56° C | - | - | 0 mm | 0 m/s | - | - |
| 1778042750 | 20.56° C | - | - | 0 mm | 0.45 m/s, 302° | - | - |
| 1778042451 | 20.56° C | - | - | 0 mm | 1.79 m/s, 326° | - | - |
| 1778042151 | 21.11° C | - | - | 0 mm | 0 m/s | - | - |
| 1778041849 | 21.67° C | - | - | 0 mm | 0 m/s | - | - |
| 1778041599 | 22.22° C | - | - | 0 mm | 0 m/s | - | - |
| 1778041250 | 22.22° C | - | - | 0 mm | 0 m/s | - | - |
| 1778040948 | 21.67° C | - | - | 0 mm | 0 m/s | - | - |
| 1778040648 | 21.67° C | - | - | 0 mm | 0 m/s | - | - |
| 1778040349 | 22.22° C | - | - | 0 mm | 0 m/s | - | - |
* Rain latest hour (hover to see other rain measurements)
** Current wind speed in m/s (hover to see current wind gust speed)